When you browse on this site, cookies collect data to enhance your experience and personalize the content and advertising you see.
Visit our Privacy Policy to learn more. By continuing to use the site, you agree to this use of cookies and data.
  • In Sweden
  • List of Countries
  • For 7 days
  • Water Temperature
  • Weather Map
  • Weather Widgets
  • user-avatar
    Login

    Hourly Weather Bhubaneswar

    Today, 25 January, Saturday

    Time Temperature Precipitation Wind Pressure Humidity
    00:00 +20°C° 0 mm 1 mps 759 mmHg 87%
    01:00 +20°C° 0 mm 1 mps 759 mmHg 88%
    02:00 +20°C° 0 mm 1 mps 758 mmHg 89%
    03:00 +19°C° 0 mm 1 mps 758 mmHg 91%
    04:00 +19°C° 0 mm 1 mps 758 mmHg 90%
    05:00 +19°C° 0 mm 1 mps 758 mmHg 90%
    06:00 +18°C° 0 mm 1 mps 758 mmHg 90%
    07:00 +20°C° 0 mm 1 mps 759 mmHg 83%
    08:00 +20°C° 0 mm 2 mps 759 mmHg 76%
    09:00 +21°C° 0 mm 2 mps 760 mmHg 69%
    10:00 +24°C° 0 mm 2 mps 760 mmHg 57%
    11:00 +26°C° 0 mm 2 mps 759 mmHg 45%
    12:00 +28°C° 0 mm 1 mps 759 mmHg 33%
    13:00 +29°C° 0 mm 1 mps 758 mmHg 30%
    14:00 +29°C° 0 mm 2 mps 757 mmHg 27%
    15:00 +30°C° 0 mm 2 mps 757 mmHg 24%
    16:00 +28°C° 0 mm 2 mps 757 mmHg 31%
    17:00 +27°C° 0 mm 2 mps 756 mmHg 38%
    18:00 +25°C° 0 mm 3 mps 756 mmHg 45%
    19:00 +24°C° 0 mm 2 mps 757 mmHg 54%
    20:00 +23°C° 0 mm 2 mps 757 mmHg 64%
    21:00 +20°C° 0 mm 2 mps 758 mmHg 73%
    22:00 +21°C° 0 mm 1 mps 758 mmHg 75%
    23:00 +21°C° 0 mm 1 mps 757 mmHg 76%

    Tomorrow, 26 January, Sunday

    Time Temperature Precipitation Wind Pressure Humidity
    00:00 +21°C° 0 mm 1 mps 757 mmHg 78%
    01:00 +20°C° 0 mm 1 mps 757 mmHg 80%
    02:00 +18°C° 0 mm 0 mps 756 mmHg 82%
    03:00 +18°C° 0 mm 0 mps 756 mmHg 84%
    04:00 +18°C° 0 mm 0 mps 756 mmHg 85%
    05:00 +18°C° 0 mm 0 mps 756 mmHg 87%
    06:00 +17°C° 0 mm 0 mps 756 mmHg 89%
    07:00 +21°C° 0 mm 1 mps 757 mmHg 84%
    08:00 +22°C° 0 mm 1 mps 758 mmHg 79%
    09:00 +23°C° 0 mm 1 mps 758 mmHg 75%
    10:00 +25°C° 0 mm 1 mps 758 mmHg 67%
    11:00 +27°C° 0 mm 1 mps 758 mmHg 59%
    12:00 +29°C° 0 mm 1 mps 757 mmHg 51%
    13:00 +30°C° 0 mm 2 mps 757 mmHg 44%
    14:00 +31°C° 0 mm 2 mps 756 mmHg 37%
    15:00 +31°C° 0 mm 3 mps 755 mmHg 30%
    16:00 +30°C° 0 mm 3 mps 755 mmHg 33%
    17:00 +28°C° 0 mm 2 mps 755 mmHg 35%
    18:00 +27°C° 0 mm 2 mps 755 mmHg 38%
    19:00 +26°C° 0 mm 2 mps 756 mmHg 50%
    20:00 +24°C° 0 mm 2 mps 756 mmHg 63%
    21:00 +23°C° 0 mm 2 mps 757 mmHg 76%
    22:00 +21°C° 0 mm 2 mps 757 mmHg 75%
    23:00 +22°C° 0 mm 1 mps 756 mmHg 75%

    Day after tomorrow, 27 January, Monday

    Time Temperature Precipitation Wind Pressure Humidity
    00:00 +22°C° 0 mm 1 mps 756 mmHg 74%
    01:00 +21°C° 0 mm 1 mps 756 mmHg 70%
    02:00 +19°C° 0 mm 2 mps 755 mmHg 66%
    03:00 +19°C° 0 mm 2 mps 755 mmHg 61%
    04:00 +18°C° 0 mm 2 mps 755 mmHg 64%
    05:00 +18°C° 0 mm 2 mps 756 mmHg 66%
    06:00 +17°C° 0 mm 2 mps 756 mmHg 68%
    07:00 +19°C° 0 mm 2 mps 757 mmHg 63%
    08:00 +21°C° 0 mm 2 mps 757 mmHg 58%
    09:00 +23°C° 0 mm 2 mps 758 mmHg 53%
    10:00 +25°C° 0 mm 2 mps 758 mmHg 44%
    11:00 +27°C° 0 mm 2 mps 758 mmHg 35%
    12:00 +29°C° 0 mm 2 mps 757 mmHg 26%
    13:00 +30°C° 0 mm 3 mps 757 mmHg 24%
    14:00 +31°C° 0 mm 3 mps 756 mmHg 21%
    15:00 +33°C° 0 mm 3 mps 755 mmHg 19%
    16:00 +30°C° 0 mm 3 mps 755 mmHg 23%
    17:00 +28°C° 0 mm 2 mps 755 mmHg 28%
    18:00 +26°C° 0 mm 2 mps 755 mmHg 32%
    19:00 +25°C° 0 mm 2 mps 756 mmHg 45%
    20:00 +23°C° 0 mm 2 mps 756 mmHg 58%
    21:00 +21°C° 0 mm 2 mps 757 mmHg 70%
    22:00 +20°C° 0 mm 2 mps 757 mmHg 72%
    23:00 +21°C° 0 mm 1 mps 757 mmHg 74%

    28 January, Tuesday

    Time Temperature Precipitation Wind Pressure Humidity
    00:00 +21°C° 0 mm 1 mps 757 mmHg 76%
    01:00 +20°C° 0 mm 1 mps 756 mmHg 78%
    02:00 +18°C° 0 mm 0 mps 756 mmHg 79%
    03:00 +18°C° 0 mm 0 mps 755 mmHg 81%
    04:00 +18°C° 0 mm 0 mps 755 mmHg 81%
    05:00 +18°C° 0 mm 0 mps 756 mmHg 82%
    06:00 +17°C° 0 mm 0 mps 756 mmHg 83%
    07:00 +21°C° 0 mm 1 mps 756 mmHg 76%
    08:00 +23°C° 0 mm 1 mps 757 mmHg 69%
    09:00 +24°C° 0 mm 1 mps 757 mmHg 62%
    10:00 +26°C° 0 mm 1 mps 757 mmHg 54%
    11:00 +28°C° 0 mm 2 mps 757 mmHg 47%
    12:00 +30°C° 0 mm 3 mps 757 mmHg 39%
    13:00 +31°C° 0 mm 3 mps 756 mmHg 39%
    14:00 +32°C° 0 mm 4 mps 756 mmHg 39%
    15:00 +33°C° 0 mm 4 mps 755 mmHg 39%
    16:00 +30°C° 0 mm 4 mps 755 mmHg 47%
    17:00 +28°C° 0 mm 4 mps 755 mmHg 54%
    18:00 +27°C° 0 mm 5 mps 755 mmHg 62%
    19:00 +26°C° 0 mm 4 mps 756 mmHg 68%
    20:00 +25°C° 0 mm 3 mps 756 mmHg 73%
    21:00 +24°C° 0 mm 3 mps 757 mmHg 79%
    22:00 +24°C° 0 mm 3 mps 757 mmHg 79%
    23:00 +24°C° 0 mm 3 mps 757 mmHg 80%

    29 January, Wednesday

    Time Temperature Precipitation Wind Pressure Humidity
    00:00 +24°C° 0 mm 3 mps 757 mmHg 80%
    01:00 +24°C° 0.1 mm 3 mps 756 mmHg 80%
    02:00 +24°C° 0.1 mm 3 mps 756 mmHg 80%
    03:00 +24°C° 0.1 mm 3 mps 756 mmHg 79%
    04:00 +24°C° 0.2 mm 3 mps 756 mmHg 82%
    05:00 +24°C° 0.2 mm 3 mps 756 mmHg 84%
    06:00 +23°C° 0.2 mm 2 mps 756 mmHg 86%
    07:00 +25°C° 0.4 mm 3 mps 757 mmHg 81%
    08:00 +26°C° 0.4 mm 5 mps 757 mmHg 76%
    09:00 +27°C° 0.4 mm 6 mps 758 mmHg 71%
    10:00 +29°C° 0.2 mm 6 mps 758 mmHg 66%
    11:00 +30°C° 0.2 mm 6 mps 758 mmHg 62%
    12:00 +32°C° 0.2 mm 6 mps 758 mmHg 57%
    13:00 +32°C° 1.3 mm 6 mps 757 mmHg 56%
    14:00 +32°C° 1.3 mm 5 mps 756 mmHg 55%
    15:00 +32°C° 1.3 mm 5 mps 756 mmHg 54%
    16:00 +30°C° 0.8 mm 5 mps 756 mmHg 60%
    17:00 +28°C° 0.8 mm 6 mps 756 mmHg 67%
    18:00 +27°C° 0.8 mm 6 mps 756 mmHg 74%
    19:00 +26°C° 0.2 mm 5 mps 756 mmHg 77%
    20:00 +26°C° 0.2 mm 5 mps 757 mmHg 79%
    21:00 +25°C° 0.2 mm 5 mps 757 mmHg 82%
    22:00 +25°C° 0.7 mm 5 mps 757 mmHg 82%
    23:00 +25°C° 0.7 mm 5 mps 757 mmHg 83%

    30 January, Thursday

    Time Temperature Precipitation Wind Pressure Humidity
    00:00 +25°C° 0.7 mm 5 mps 757 mmHg 83%
    01:00 +25°C° 0.2 mm 4 mps 757 mmHg 83%
    02:00 +25°C° 0.2 mm 4 mps 756 mmHg 84%
    03:00 +25°C° 0.2 mm 3 mps 756 mmHg 85%
    04:00 +24°C° 0.1 mm 3 mps 756 mmHg 86%
    05:00 +24°C° 0.1 mm 3 mps 756 mmHg 87%
    06:00 +24°C° 0.1 mm 2 mps 756 mmHg 88%
    07:00 +25°C° 0 mm 2 mps 757 mmHg 81%
    08:00 +26°C° 0 mm 2 mps 757 mmHg 74%
    09:00 +27°C° 0 mm 2 mps 758 mmHg 67%
    10:00 +29°C° 0 mm 3 mps 757 mmHg 60%
    11:00 +30°C° 0 mm 3 mps 757 mmHg 53%
    12:00 +33°C° 0 mm 3 mps 757 mmHg 46%
    13:00 +33°C° 0 mm 3 mps 756 mmHg 42%
    14:00 +34°C° 0 mm 4 mps 755 mmHg 37%
    15:00 +34°C° 0 mm 4 mps 754 mmHg 33%
    16:00 +33°C° 0 mm 3 mps 754 mmHg 37%
    17:00 +31°C° 0 mm 3 mps 754 mmHg 40%
    18:00 +29°C° 0 mm 2 mps 754 mmHg 44%
    19:00 +28°C° 0 mm 2 mps 755 mmHg 49%
    20:00 +27°C° 0 mm 2 mps 755 mmHg 55%
    21:00 +26°C° 0 mm 2 mps 756 mmHg 60%
    22:00 +26°C° 0 mm 2 mps 756 mmHg 60%
    23:00 +25°C° 0 mm 2 mps 756 mmHg 59%
    Show more